Probability
0 0 0 0 0 0 0 0 0 0 0 0 0 0 0 0 0 0 0 0 0 0 0 0 0 0 0 0 0 0 0 0 0 0 0 0 0 0 0 0 0 0 0
0 0 0 0 0 0 0 0 0 0 0 0 0 0 0 0 0 0 0 0 0 0 0 0 0 0 0 0 0 0 0 0 0 0 0 0 0 0 0 0 0 0 0
0 0 0 0 0 0 0 0 0 0 0 0 0 0 0 0 0 0 0 0 0 0 0 0 0 0 0 0 0 0 0 0 0 0 0 0 0 0 0 0 0 0 0
0 0 0 0 0 0 0 0 0 0 0 0 0 0 0 0 0 0 0 0 0 0 0 0 0 0 0 0 0 0 0 0 0 0 0 0 0 0 0 0 0 0 0
0 0 0 0 0 0 0 0 0 0 0 0 0 0 0 0 0 0 0 0 0 0 0 0 0 0 0 0 0 0 0 0 0 0 0 0 0 0 0 0 0 0 0
0 0 0 0 0 0 0 0 0 0 0 0 0 0 0 0 0 0 0 0 0 0 0 0 0 0 0 0 0 0 0 0 0 0 0 0 0 0 0 0 0 0 0
0 0 0 0 0 0 0 0 0 0 0 0 0 0 0 0 0 0 0 0 0 0 0 0 0 0 0 0 0 0 0 0 0 0 0 0 0 0 0 0 0 0 0
0 0 0 0 0 0 0 0 0 0 0 0 0 0 0 0 0 0 0 0 0 0 0 0 0 0 0 0 0 0 0 0 0 0 0 0 0 0 0 0 0 0 0
0 0 0 0 0 0 0 0 0 0 0 0 0 0 0 0 0 0 0 0 0 0 0 0 0 0 0 0 0 0 0 0 0 0 0 0 0 0 0 0 0 0 0
0 0 0 0 0 0 0 0 0 0 0 0 0 0 0 0 0 0 0 0 0 0 0 0 0 0 0 0 0 0 0 0 0 0 0 0 0 0 0 0 0 0 0
0 0 0 0 0 0 0 0 0 0 0 0 0 0 0 0 0 0 0 0 0 0 0 0 0 0 0 0 0 0 0 0 0 0 0 0 0 0 0 0 0 0 0
0 0 0 0 0 0 0 0 0 0 0 0 0 0 0 0 0 0 0 0 0 0 0 0 0 0 0 0 0 0 0 0 0 0 0 0 0 0 0 0 0 0 0
0 0 0 0 0 0 0 0 0 0 0 0 0 0 0 0 0 0 0 0 0 0 0 0 0 0 0 0 0 0 0 0 0 0 0 0 0 0 0 0 0 0 0
0 0 0 0 0 0 0 0 0 0 0 0 0 0 0 0 0 0 0 0 0 0 0 0 0 0 0 0 0 0 0 0 0 0 0 0 0 0 0 0 0 0 0
0 0 0 0 0 0 0 0 0 0 0 0 0 0 0 0 0 0 0 0 0 0 0 0 0 0 0 0 0 0 0 0 0 0 0 0 0 0 0 0 0 0 0
0 0 0 0 0 0 0 0 0 0 0 0 0 0 0 0 0 0 0 0 0 0 0 0 0 0 0 0 0 0 0 0 0 0 0 0 0 0 0 0 0 0 0
0 0 0 0 0 0 0 0 0 0 0 0 0 0 0 0 0 0 0 0 0 0 0 0 0 0 0 0 0 0 0 0 0 0 0 0 0 0 0 0 0 0 0
0 0 0 0 0 0 0 0 0 0 0 0 0 0 0 0 0 0 0 0 0 0 0 0 0 0 0 0 0 0 0 0 0 0 0 0 0 0 0 0 0 0 0
0 0 0 0 0 0 0 0 0 0 0 0 0 0 0 0 0 0 0 0 0 0 0 0 0 0 0 0 0 0 0 0 0 0 0 0 0 0 0 0 0 0 0
0 0 0 0 0 0 0 0 0 0 0 0 0 0 0 0 0 0 0 0 0 0 0 0 0 0 0 0 0 0 0 0 0 0 0 0 0 0 0 0 0 0 0
0 0 0 0 0 0 0 0 0 0 0 0 0 0 0 0 0 0 0 0 0 0 0 0 0 0 0 0 0 0 0 0 0 0 0 0 0 0 0 0 0 0 0
0 0 0 0 0 0 0 0 0 0 0 0 0 0 0 0 0 0 0 0 0 0 0 0 0 0 0 0 0 0 0 0 0 0 0 0 0 0 0 0 0 0 0
0 0 0 0 0 0 0 0 0 0 0 0 0 0 0 0 0 0 0 0 0 0 0 0 0 0 0 0 0 0 0 0 0 0 0 0 0 0 0 0 0 0 0
0 0 0 0 0 0 0 0 0 0 0 0 0 0 0 0 0 0 0 0 0 0 0 0 0 0 0 0 0 0 0 0 0 0 0 0 0 0 0 0 0 0 0
0 0 0 0 0 0 0 0 0 0 0 0 0 0 0 0 0 0 0 0 0 0 0 0 0 0 0 0 0 0 0 0 0 0 0 0 0 0 0 0 0 0 0
0 0 0 0 0 0 0 0 0 0 0 0 0 0 0 0 0 0 0 0 0 0 0 0 0 0 0 0 0 0 0 0 0 0 0 0 0 0 0 0 0 0 0
Height
5701 5703 5705 5707 5709 5710 5712 5714 5715 5717 5718 5718 5719 5721 5722 5723 5724 5725 5726 5727 5728 5729 5730 5731 5732 5733 5735 5736 5737 5738 5739 5740 5741 5743 5745 5746 5748 5750 5752 5753 5755 5757 5759
5690 5692 5694 5696 5698 5699 5701 5703 5704 5706 5707 5708 5709 5710 5711 5712 5713 5714 5715 5716 5717 5718 5719 5720 5721 5722 5723 5724 5725 5726 5728 5729 5730 5732 5733 5735 5738 5739 5741 5743 5744 5746 5748
5679 5680 5682 5684 5686 5688 5690 5691 5693 5694 5696 5696 5697 5699 5699 5700 5701 5702 5703 5704 5705 5705 5707 5707 5708 5710 5711 5712 5713 5715 5716 5717 5719 5720 5722 5724 5726 5728 5730 5732 5734 5735 5737
5668 5670 5671 5673 5674 5676 5677 5679 5681 5682 5684 5685 5686 5687 5688 5689 5690 5690 5691 5691 5692 5692 5693 5694 5695 5697 5698 5699 5701 5702 5704 5705 5707 5708 5710 5712 5714 5716 5719 5721 5722 5724 5726
5658 5659 5660 5661 5662 5664 5665 5667 5668 5670 5671 5672 5674 5675 5675 5676 5677 5677 5678 5678 5679 5679 5680 5681 5682 5683 5684 5686 5687 5689 5691 5693 5695 5697 5698 5700 5702 5704 5706 5709 5710 5712 5713
5647 5648 5649 5650 5651 5652 5653 5655 5656 5657 5658 5660 5661 5662 5663 5663 5664 5664 5665 5665 5666 5666 5667 5668 5669 5670 5671 5672 5674 5676 5679 5681 5683 5685 5686 5688 5690 5692 5693 5696 5698 5700 5701
5636 5636 5637 5638 5639 5640 5641 5642 5644 5645 5646 5647 5648 5649 5650 5651 5651 5651 5652 5652 5653 5654 5654 5655 5656 5657 5658 5659 5661 5663 5666 5668 5670 5672 5674 5675 5677 5679 5681 5683 5685 5687 5689
5624 5625 5626 5627 5627 5628 5629 5630 5631 5632 5633 5634 5635 5636 5637 5637 5638 5638 5639 5639 5640 5641 5641 5642 5643 5644 5645 5646 5648 5650 5652 5655 5657 5659 5661 5662 5664 5666 5668 5670 5671 5673 5676
5613 5613 5614 5615 5616 5616 5617 5618 5618 5619 5620 5621 5622 5623 5624 5624 5625 5625 5625 5626 5627 5627 5628 5629 5630 5631 5632 5634 5635 5637 5639 5641 5643 5645 5647 5649 5650 5652 5654 5656 5658 5660 5662
5601 5602 5602 5603 5603 5604 5605 5605 5606 5607 5607 5608 5609 5610 5610 5611 5611 5612 5612 5613 5613 5614 5614 5615 5617 5618 5619 5620 5622 5624 5626 5628 5630 5631 5633 5635 5637 5638 5640 5642 5643 5645 5648
5590 5590 5591 5591 5591 5592 5593 5593 5594 5594 5594 5595 5595 5596 5597 5597 5597 5598 5598 5598 5599 5599 5600 5602 5603 5604 5606 5607 5609 5610 5612 5614 5616 5618 5619 5621 5622 5623 5625 5627 5629 5631 5633
5578 5579 5579 5579 5580 5580 5580 5581 5581 5581 5581 5581 5582 5582 5583 5583 5584 5584 5585 5585 5585 5586 5587 5588 5589 5590 5591 5593 5595 5597 5598 5600 5602 5603 5605 5606 5607 5609 5610 5612 5613 5616 5617
5568 5568 5568 5568 5568 5568 5568 5568 5568 5568 5568 5568 5568 5569 5569 5570 5570 5571 5571 5571 5571 5572 5573 5574 5575 5576 5577 5579 5580 5582 5583 5585 5587 5588 5590 5591 5592 5594 5595 5596 5598 5600 5602
5557 5557 5556 5556 5556 5556 5556 5556 5556 5555 5555 5555 5555 5555 5556 5556 5557 5557 5557 5558 5558 5558 5559 5560 5561 5562 5563 5564 5566 5567 5568 5570 5571 5573 5574 5576 5577 5578 5580 5581 5582 5584 5586
5546 5545 5545 5544 5544 5544 5544 5544 5543 5543 5543 5542 5542 5542 5542 5543 5543 5543 5544 5544 5545 5545 5546 5546 5547 5548 5549 5550 5551 5552 5553 5555 5556 5557 5559 5560 5561 5562 5563 5565 5566 5568 5569
5535 5534 5533 5533 5532 5532 5532 5532 5531 5531 5530 5530 5530 5529 5529 5530 5530 5530 5531 5531 5531 5532 5532 5533 5533 5534 5535 5535 5536 5537 5538 5539 5540 5541 5543 5544 5545 5546 5547 5548 5550 5551 5553
5523 5522 5521 5521 5520 5519 5519 5519 5518 5518 5517 5517 5517 5517 5517 5517 5517 5517 5517 5517 5518 5518 5519 5519 5519 5520 5520 5520 5521 5521 5522 5523 5524 5525 5526 5527 5528 5529 5530 5531 5533 5534 5536
5512 5511 5510 5509 5508 5508 5507 5506 5505 5505 5505 5504 5504 5504 5504 5504 5504 5504 5504 5504 5504 5504 5505 5505 5505 5505 5505 5505 5505 5505 5506 5507 5507 5508 5509 5510 5511 5512 5513 5514 5516 5517 5519
5501 5499 5498 5498 5497 5496 5495 5494 5493 5493 5492 5492 5492 5492 5492 5491 5491 5491 5491 5491 5491 5491 5491 5491 5491 5491 5491 5491 5491 5491 5491 5492 5492 5492 5492 5493 5494 5495 5496 5497 5499 5500 5502
5490 5488 5487 5486 5485 5484 5483 5482 5481 5481 5480 5480 5480 5479 5479 5479 5478 5478 5478 5478 5478 5478 5478 5478 5478 5478 5478 5478 5477 5476 5476 5477 5477 5477 5477 5478 5478 5478 5479 5480 5482 5483 5485
5479 5478 5476 5475 5474 5473 5472 5471 5470 5469 5468 5468 5467 5467 5466 5466 5466 5466 5465 5465 5465 5465 5465 5465 5465 5465 5465 5464 5463 5463 5462 5463 5463 5463 5463 5463 5463 5463 5463 5464 5465 5467 5467
5469 5467 5465 5464 5463 5461 5460 5459 5458 5457 5456 5456 5455 5455 5454 5453 5453 5453 5452 5452 5452 5452 5452 5452 5452 5451 5451 5451 5450 5450 5449 5449 5449 5449 5449 5449 5448 5448 5448 5448 5449 5450 5450
5459 5457 5455 5453 5452 5450 5449 5448 5447 5446 5445 5444 5443 5443 5442 5441 5441 5440 5440 5439 5439 5439 5439 5439 5439 5439 5439 5438 5438 5437 5436 5436 5436 5435 5435 5434 5434 5433 5434 5434 5434 5434 5434
5449 5447 5445 5443 5442 5440 5438 5437 5435 5434 5433 5433 5432 5431 5430 5429 5429 5428 5428 5427 5427 5427 5427 5427 5427 5426 5426 5425 5425 5424 5423 5423 5422 5421 5421 5420 5419 5419 5419 5419 5418 5418 5419
5440 5437 5435 5434 5432 5430 5428 5426 5424 5423 5422 5421 5420 5420 5419 5418 5417 5416 5416 5416 5415 5415 5415 5415 5414 5414 5414 5413 5412 5411 5410 5409 5408 5407 5406 5406 5405 5405 5404 5404 5404 5403 5404
5431 5428 5426 5424 5422 5420 5418 5416 5414 5413 5411 5410 5409 5408 5407 5406 5405 5405 5405 5404 5404 5403 5403 5402 5402 5401 5401 5400 5399 5397 5396 5395 5394 5393 5393 5392 5391 5390 5390 5389 5389 5389 5389
Wind_Speed
41 42 42 42 42 42 42 42 42 42 41 41 41 42 42 42 43 44 45 44 44 44 44 43 44 43 43 42 42 43 43 43 43 42 42 42 42 42 42 42 42 42 42
41 43 43 43 43 43 43 43 43 43 43 43 43 43 43 43 44 45 46 46 45 45 45 44 44 45 45 45 44 44 44 44 44 43 43 43 43 43 43 43 43 43 43
40 42 43 43 43 43 44 44 44 44 44 44 44 44 45 45 45 46 46 47 48 48 47 47 46 46 46 46 46 45 45 45 45 45 44 44 44 44 44 44 44 44 44
39 41 42 43 44 44 44 45 45 45 45 45 45 46 47 47 46 47 47 48 49 48 49 49 49 49 49 48 47 47 47 46 46 46 46 46 46 46 45 46 46 45 45
40 40 41 43 43 44 44 45 46 45 46 46 46 47 48 48 47 48 48 48 49 49 49 49 50 50 50 50 49 48 47 47 47 47 47 47 47 47 47 47 47 47 47
40 40 40 41 42 43 44 45 46 47 47 47 48 48 48 48 48 48 48 48 48 49 49 49 48 49 49 50 50 49 49 49 49 48 48 48 48 48 49 48 48 48 48
38 40 41 42 42 43 44 45 46 47 48 48 48 48 48 48 48 48 48 48 48 48 49 49 49 49 49 49 50 50 50 50 51 50 50 50 50 50 50 50 49 50 49
39 40 40 42 43 44 44 45 45 46 47 48 48 48 48 48 48 48 48 48 49 50 50 50 49 50 50 49 49 50 50 51 51 51 51 51 51 52 51 51 51 51 51
39 40 40 41 42 42 43 44 45 46 47 48 49 49 49 49 49 48 49 49 49 50 50 50 50 51 50 50 51 51 51 52 52 52 52 52 53 53 53 53 53 52 52
38 39 40 41 42 42 42 43 44 45 46 48 48 49 49 49 49 49 49 50 51 51 51 51 51 51 50 51 52 52 52 52 52 52 53 53 54 54 54 55 54 54 54
37 38 39 40 41 42 42 43 43 44 46 47 48 49 49 50 50 50 50 50 51 51 52 52 52 52 52 52 52 53 53 53 52 53 53 53 54 55 55 55 56 56 56
37 38 39 40 40 41 42 42 43 44 45 46 48 49 49 50 51 51 52 52 52 52 52 52 53 54 54 54 53 53 53 54 54 54 54 55 55 56 55 55 56 57 57
38 38 39 39 40 41 41 42 43 44 45 46 46 47 49 50 50 50 51 51 52 52 52 52 53 54 54 54 55 55 55 55 54 54 55 55 56 56 56 56 57 58 58
38 39 39 39 40 41 42 42 43 44 45 45 46 47 49 49 49 50 50 50 51 53 53 53 53 54 54 54 54 54 55 55 55 56 56 56 57 57 57 57 57 58 59
38 39 39 40 40 41 41 42 42 43 44 45 46 47 48 48 48 49 49 50 51 53 53 53 54 54 54 54 55 55 55 55 55 56 57 57 58 58 58 58 59 59 59
37 37 38 40 40 40 41 41 42 42 43 44 45 46 47 48 48 49 49 50 50 51 52 51 52 53 54 55 55 55 56 56 56 56 57 58 58 58 59 60 59 59 59
37 37 37 38 39 40 41 42 42 42 42 43 44 45 45 46 47 48 48 48 49 49 50 51 51 51 52 53 53 54 56 57 58 58 58 58 58 59 59 59 60 60 60
35 36 37 37 37 38 39 40 41 42 42 42 43 43 44 45 46 46 46 47 48 48 49 49 49 49 49 50 51 52 52 54 55 56 57 57 58 59 59 60 60 60 60
35 36 36 37 37 37 37 38 39 40 41 41 41 41 42 43 44 44 45 45 46 46 47 47 48 47 47 49 50 50 51 51 51 52 53 54 55 56 57 57 57 58 59
35 35 36 36 37 37 37 37 38 39 40 41 41 41 41 42 43 43 43 44 44 45 45 45 46 46 45 46 47 48 49 49 49 49 49 50 51 53 54 55 56 57 58
35 35 36 36 36 37 36 37 37 37 38 39 40 41 40 41 41 42 43 44 44 45 45 45 45 46 46 46 46 46 46 46 46 46 47 47 48 50 51 53 54 55 56
33 34 35 35 35 35 35 36 36 36 36 37 37 39 39 39 40 40 41 42 43 44 44 44 44 45 45 44 44 44 45 45 46 46 47 47 48 48 50 51 52 54 55
32 33 33 34 34 35 35 35 35 35 35 35 36 36 37 38 38 39 39 40 41 42 43 42 42 42 43 44 43 43 44 45 45 46 47 48 48 49 49 50 51 53 53
32 32 32 33 33 33 34 34 34 34 34 35 35 35 36 36 37 38 38 39 39 39 41 41 41 42 43 44 44 44 45 45 45 45 46 47 48 48 49 50 50 51 51
30 30 31 31 31 31 32 32 33 33 34 34 34 35 35 36 36 36 37 37 38 38 39 40 40 41 42 42 43 43 43 44 44 45 46 46 47 47 48 48 48 49 49
29 29 29 29 30 30 30 30 31 31 32 33 33 34 34 34 34 34 35 36 37 38 39 39 39 40 41 41 41 42 42 43 43 43 44 45 45 45 46 46 46 47 48
Wind_Direction
253 252 252 252 253 253 253 254 255 255 256 256 256 256 256 256 255 255 255 255 256 257 258 257 257 258 258 257 257 258 257 257 257 256 256 256 256 256 256 257 258 258 259
253 252 253 253 253 253 254 254 255 256 256 257 256 256 256 256 256 255 256 257 257 256 257 257 257 257 257 258 258 257 257 257 256 257 257 257 257 257 257 257 258 259 259
254 253 253 253 254 254 254 254 255 255 255 256 256 256 256 257 257 257 257 257 257 258 258 258 259 259 258 258 258 257 257 257 257 257 258 258 258 258 257 257 258 259 259
255 255 254 254 254 254 254 254 255 256 255 256 256 256 257 257 258 258 257 257 258 258 258 259 259 259 258 258 258 258 258 257 257 257 258 258 259 258 257 257 258 258 258
256 256 256 255 255 255 255 255 254 255 255 255 256 256 257 258 258 259 259 258 258 258 259 259 260 259 259 258 258 258 257 257 257 257 258 259 259 258 257 256 257 258 258
257 256 256 256 256 257 256 256 255 255 256 256 256 257 257 258 258 259 259 259 259 259 260 260 259 259 259 258 258 258 257 258 258 258 259 259 259 259 258 257 257 258 258
258 258 257 257 257 258 258 257 257 256 256 256 256 257 257 258 259 260 259 259 260 260 260 259 259 258 258 258 257 257 257 258 258 258 259 259 259 259 258 258 258 258 258
260 260 260 259 259 259 259 259 257 256 256 256 256 256 257 258 259 260 260 259 260 260 260 260 259 259 258 258 258 257 257 258 258 258 259 259 259 259 258 258 258 258 258
262 262 261 260 260 260 259 259 258 257 257 256 256 256 257 258 259 259 259 259 260 260 259 259 259 259 259 259 258 258 258 258 259 259 260 259 259 259 258 258 258 258 258
263 262 262 261 260 260 260 260 260 260 260 259 257 257 257 258 259 259 259 259 259 259 259 259 259 259 259 260 259 259 259 259 260 260 259 259 259 259 258 258 258 257 258
263 263 263 262 261 261 261 262 262 262 261 260 258 258 258 258 259 259 259 259 259 259 258 258 258 258 258 258 259 259 259 260 260 260 260 260 260 259 258 258 258 258 258
264 265 264 263 262 262 262 262 262 262 262 261 259 258 259 259 259 260 260 260 259 258 257 258 258 259 259 259 259 259 260 260 260 260 260 260 260 260 260 259 259 259 259
267 266 266 265 263 262 262 263 263 263 263 262 261 260 260 260 260 261 262 261 259 258 258 259 259 259 259 260 260 260 260 259 259 259 259 260 260 260 260 260 260 260 260
269 268 268 266 264 263 263 264 264 264 264 263 263 261 260 260 261 261 261 261 259 258 259 260 260 261 261 261 260 260 260 259 258 259 260 261 261 260 260 261 261 261 261
271 270 268 266 265 264 263 264 265 265 264 264 264 263 262 261 261 261 261 260 260 259 260 261 261 261 261 261 261 261 261 260 260 260 261 261 261 261 261 261 261 261 261
272 271 269 268 267 266 265 265 266 266 265 265 264 264 263 261 261 262 261 261 261 261 260 261 262 261 261 262 263 262 261 261 261 261 262 261 261 260 260 260 260 261 261
274 272 271 270 269 268 267 266 266 266 266 266 264 264 263 262 262 262 262 261 261 261 261 262 263 262 262 262 263 263 262 262 261 261 262 262 261 260 260 259 259 260 260
276 274 272 272 271 270 269 267 266 266 266 266 265 265 264 264 263 263 262 261 260 260 261 261 262 263 262 263 263 264 263 262 262 262 262 262 261 260 260 259 259 259 260
276 274 273 273 272 271 271 270 268 267 267 267 266 265 265 265 264 264 263 262 262 261 262 263 261 262 263 264 264 264 263 263 263 263 263 263 262 261 260 260 260 260 259
277 276 274 274 273 273 272 272 270 269 268 267 267 266 266 266 265 264 263 263 263 262 263 263 262 263 264 264 264 265 264 264 264 264 264 264 263 262 262 261 261 261 260
278 276 275 275 274 273 273 273 273 271 270 268 267 267 268 267 266 264 264 263 263 263 263 263 263 263 264 265 265 265 265 265 265 265 265 265 265 264 263 263 262 262 262
280 279 277 276 275 274 274 274 274 273 271 270 269 268 268 268 267 266 265 264 264 264 264 264 264 265 264 265 265 265 265 265 266 266 266 266 266 265 265 264 264 264 263
282 281 280 278 276 276 275 274 274 274 273 271 270 269 269 269 268 268 267 266 266 265 265 265 265 265 265 265 266 266 267 267 266 266 266 266 266 266 266 266 266 265 264
284 283 282 280 279 277 277 276 275 275 274 273 272 271 271 270 269 268 268 268 268 266 265 265 266 266 267 266 267 268 269 269 267 267 267 267 267 267 266 266 266 266 265
287 286 284 284 283 282 280 279 278 277 275 274 274 273 272 271 270 269 269 269 268 268 267 267 268 268 269 269 269 269 269 270 270 269 268 268 268 268 267 266 266 265 264
289 288 287 286 286 284 282 281 280 279 277 275 274 273 272 271 271 270 269 269 269 269 269 269 270 270 271 271 271 272 272 271 271 271 270 270 269 268 267 267 266 266 265